�������l�o���
Date,Time,MP-1(��Sv/h),MP-2(��Sv/h),MP-3(��Sv/h),MP-4(��Sv/h),MP-5(��Sv/h),MP-6(��Sv/h),MP-7(��Sv/h),MP-8(��Sv/h),����,����(m/s),���J
2024/04/02,00:00,0.507,0.768,0.482,0.952,0.672,0.312,0.554,0.517,��,9.5,��
2024/04/02,00:10,0.505,0.768,0.483,0.954,0.674,0.315,0.552,0.519,��,9.5,��
2024/04/02,00:20,0.505,0.768,0.483,0.955,0.675,0.314,0.552,0.517,��,9.9,��
2024/04/02,00:30,0.506,0.768,0.482,0.955,0.673,0.313,0.552,0.516,��,9.1,��
2024/04/02,00:40,0.505,0.768,0.483,0.953,0.673,0.313,0.551,0.518,��,7.0,��
2024/04/02,00:50,0.503,0.769,0.483,0.955,0.676,0.314,0.551,0.518,��,5.2,��
2024/04/02,01:00,0.506,0.770,0.483,0.955,0.675,0.312,0.550,0.518,���k��,5.4,��
2024/04/02,01:10,0.506,0.765,0.484,0.952,0.675,0.313,0.551,0.517,���k��,2.8,��
2024/04/02,01:20,0.504,0.770,0.484,0.953,0.672,0.313,0.550,0.518,��,1.9,��
2024/04/02,01:30,0.505,0.768,0.483,0.955,0.675,0.313,0.552,0.519,��,1.7,��
2024/04/02,01:40,0.504,0.769,0.483,0.956,0.674,0.313,0.551,0.519,��,3.1,��
2024/04/02,01:50,0.506,0.769,0.483,0.958,0.674,0.313,0.551,0.516,��,3.7,��
2024/04/02,02:00,0.505,0.770,0.483,0.956,0.673,0.313,0.552,0.517,���k��,2.0,��
2024/04/02,02:10,0.505,0.770,0.481,0.955,0.673,0.313,0.551,0.519,��,3.6,��
2024/04/02,02:20,0.505,0.769,0.483,0.955,0.673,0.313,0.551,0.518,��,3.0,��
2024/04/02,02:30,0.505,0.769,0.485,0.955,0.675,0.313,0.551,0.518,��,3.6,��
2024/04/02,02:40,0.504,0.770,0.483,0.955,0.674,0.313,0.551,0.517,��,3.3,��
2024/04/02,02:50,0.505,0.767,0.482,0.956,0.674,0.313,0.550,0.518,���쐼,2.9,��
2024/04/02,03:00,0.505,0.769,0.482,0.954,0.674,0.313,0.552,0.517,�쐼,2.3,��
2024/04/02,03:10,0.504,0.768,0.482,0.954,0.673,0.312,0.551,0.519,���쐼,1.5,��
2024/04/02,03:20,0.505,0.768,0.483,0.953,0.673,0.313,0.551,0.516,���쐼,0.9,��
2024/04/02,03:30,0.505,0.768,0.483,0.954,0.672,0.311,0.551,0.517,�쐼,1.2,��
2024/04/02,03:40,0.505,0.767,0.482,0.955,0.673,0.313,0.551,0.517,���쐼,1.9,��
2024/04/02,03:50,0.506,0.766,0.483,0.957,0.674,0.313,0.552,0.517,�쐼,0.9,��
2024/04/02,04:00,0.505,0.769,0.482,0.955,0.673,0.313,0.551,0.515,-,CALM,��
2024/04/02,04:10,0.504,0.768,0.482,0.954,0.673,0.312,0.553,0.518,-,CALM,��
2024/04/02,04:20,0.505,0.768,0.482,0.952,0.673,0.313,0.549,0.517,-,CALM,��
2024/04/02,04:30,0.504,0.766,0.482,0.952,0.674,0.312,0.551,0.516,��쐼,1.7,��
2024/04/02,04:40,0.504,0.768,0.483,0.953,0.674,0.312,0.551,0.517,��쐼,1.5,��
2024/04/02,04:50,0.505,0.769,0.482,0.952,0.675,0.312,0.550,0.516,��쐼,1.5,��
2024/04/02,05:00,0.506,0.768,0.482,0.953,0.673,0.313,0.550,0.516,��쐼,1.7,��
2024/04/02,05:10,0.504,0.767,0.483,0.954,0.673,0.312,0.550,0.516,���쐼,2.0,��
2024/04/02,05:20,0.504,0.768,0.482,0.955,0.672,0.312,0.550,0.517,���쐼,1.5,��
2024/04/02,05:30,0.504,0.767,0.482,0.953,0.675,0.313,0.551,0.517,���쐼,1.9,��
2024/04/02,05:40,0.504,0.768,0.483,0.955,0.675,0.312,0.551,0.517,��쐼,1.7,��
2024/04/02,05:50,0.502,0.768,0.480,0.955,0.673,0.312,0.551,0.516,�쐼,1.4,��
2024/04/02,06:00,0.504,0.765,0.481,0.956,0.673,0.314,0.550,0.516,��쐼,2.3,��
2024/04/02,06:10,0.506,0.768,0.483,0.953,0.673,0.313,0.550,0.516,���쐼,2.2,��
2024/04/02,06:20,0.505,0.766,0.482,0.955,0.675,0.312,0.550,0.515,��쐼,2.0,��
2024/04/02,06:30,0.504,0.767,0.482,0.955,0.674,0.313,0.549,0.515,��쐼,1.7,��
2024/04/02,06:40,0.505,0.767,0.481,0.952,0.673,0.311,0.551,0.513,���쐼,2.6,��
2024/04/02,06:50,0.503,0.770,0.481,0.955,0.675,0.313,0.551,0.516,���쐼,4.2,��
2024/04/02,07:00,0.506,0.767,0.482,0.957,0.673,0.313,0.551,0.515,��,4.7,��
2024/04/02,07:10,0.505,0.768,0.482,0.956,0.673,0.314,0.552,0.517,��,4.1,��
2024/04/02,07:20,0.504,0.769,0.481,0.954,0.672,0.312,0.550,0.516,���k��,2.9,��
2024/04/02,07:30,0.504,0.768,0.482,0.954,0.672,0.312,0.550,0.515,��,3.0,��
2024/04/02,07:40,0.506,0.767,0.482,0.955,0.673,0.312,0.551,0.516,��,4.7,��
2024/04/02,07:50,0.504,0.768,0.483,0.955,0.675,0.312,0.552,0.516,��,4.4,��
2024/04/02,08:00,0.506,0.769,0.484,0.955,0.673,0.312,0.550,0.517,�쐼,3.5,��
2024/04/02,08:10,0.505,0.770,0.483,0.955,0.673,0.310,0.552,0.517,���쐼,2.3,��
2024/04/02,08:20,0.504,0.768,0.483,0.956,0.675,0.311,0.553,0.517,��,1.9,��
2024/04/02,08:30,0.504,0.764,0.482,0.954,0.675,0.311,0.551,0.518,��,1.1,��
2024/04/02,08:40,0.505,0.767,0.483,0.956,0.676,0.311,0.549,0.516,���k��,2.5,��
2024/04/02,08:50,0.505,0.767,0.483,0.956,0.676,0.312,0.551,0.517,�k�k��,1.2,��
2024/04/02,09:00,0.506,0.768,0.483,0.957,0.675,0.311,0.551,0.517,�k�k��,3.2,��
2024/04/02,09:10,0.506,0.769,0.482,0.955,0.674,0.311,0.548,0.516,�k��,1.4,��
2024/04/02,09:20,0.505,0.769,0.483,0.955,0.673,0.310,0.550,0.516,��,1.4,��
2024/04/02,09:30,0.506,0.765,0.482,0.956,0.674,0.312,0.551,0.515,���쓌,2.3,��
2024/04/02,09:40,0.505,0.767,0.484,0.952,0.676,0.312,0.549,0.514,��,2.3,��
2024/04/02,09:50,0.505,0.766,0.484,0.957,0.675,0.313,0.550,0.513,��,3.0,��
2024/04/02,10:00,0.506,0.770,0.484,0.957,0.675,0.312,0.552,0.515,��,2.6,��
2024/04/02,10:10,0.505,0.768,0.483,0.957,0.675,0.312,0.550,0.514,��,2.0,��
2024/04/02,10:20,0.505,0.767,0.483,0.956,0.675,0.311,0.549,0.516,��,1.7,��
2024/04/02,10:30,0.505,0.768,0.483,0.958,0.672,0.312,0.550,0.514,�쓌,4.6,��
2024/04/02,10:40,0.504,0.770,0.484,0.955,0.676,0.312,0.551,0.515,��쓌,4.8,��
2024/04/02,10:50,0.505,0.769,0.485,0.956,0.673,0.312,0.549,0.516,��쓌,5.4,��
2024/04/02,11:00,0.505,0.767,0.482,0.957,0.675,0.312,0.549,0.515,��쓌,4.7,��
2024/04/02,11:10,0.505,0.769,0.484,0.958,0.675,0.313,0.550,0.516,��쓌,4.2,��
2024/04/02,11:20,0.505,0.768,0.485,0.958,0.675,0.312,0.550,0.515,��,3.3,��
2024/04/02,11:30,0.503,0.768,0.483,0.958,0.676,0.312,0.548,0.515,�쓌,4.0,��
2024/04/02,11:40,0.505,0.771,0.485,0.955,0.676,0.313,0.550,0.516,�쓌,4.0,��
2024/04/02,11:50,0.504,0.769,0.483,0.956,0.674,0.311,0.550,0.515,�쓌,3.8,��
2024/04/02,12:00,0.505,0.770,0.483,0.958,0.675,0.312,0.551,0.516,��쓌,5.1,��
2024/04/02,12:10,0.505,0.771,0.483,0.958,0.676,0.311,0.551,0.515,��쓌,3.9,��
2024/04/02,12:20,0.504,0.769,0.483,0.959,0.675,0.311,0.551,0.516,��쓌,5.0,��
2024/04/02,12:30,0.505,0.771,0.483,0.958,0.675,0.312,0.552,0.517,�쓌,4.7,��
2024/04/02,12:40,0.505,0.769,0.484,0.957,0.676,0.312,0.550,0.516,�쓌,4.8,��
2024/04/02,12:50,0.505,0.768,0.483,0.958,0.674,0.312,0.553,0.515,���쓌,4.2,��
2024/04/02,13:00,0.506,0.770,0.483,0.958,0.675,0.313,0.553,0.515,���쓌,4.9,��
2024/04/02,13:10,0.505,0.770,0.484,0.957,0.677,0.313,0.553,0.515,���쓌,4.5,��
2024/04/02,13:20,0.508,0.770,0.485,0.958,0.676,0.312,0.552,0.516,���쓌,4.0,��
2024/04/02,13:30,0.507,0.770,0.485,0.958,0.675,0.311,0.553,0.516,���쓌,4.0,��
2024/04/02,13:40,0.505,0.770,0.482,0.958,0.677,0.312,0.552,0.514,���쓌,5.0,��
2024/04/02,13:50,0.507,0.770,0.485,0.958,0.676,0.312,0.552,0.517,���쓌,5.0,��
2024/04/02,14:00,0.503,0.768,0.484,0.958,0.676,0.311,0.552,0.513,���쓌,5.5,��
2024/04/02,14:10,0.505,0.769,0.483,0.958,0.678,0.312,0.552,0.516,���쓌,6.6,��
2024/04/02,14:20,0.505,0.770,0.482,0.959,0.676,0.313,0.553,0.516,���쓌,6.9,��
2024/04/02,14:30,0.506,0.768,0.483,0.958,0.678,0.314,0.552,0.517,���쓌,6.8,��
2024/04/02,14:40,0.506,0.770,0.482,0.960,0.676,0.313,0.553,0.515,�쓌,6.1,��
2024/04/02,14:50,0.508,0.771,0.482,0.958,0.679,0.313,0.552,0.516,�쓌,4.3,��
2024/04/02,15:00,0.505,0.768,0.483,0.961,0.677,0.314,0.551,0.514,�쓌,2.6,��
2024/04/02,15:10,0.504,0.771,0.483,0.960,0.677,0.315,0.553,0.515,�쓌,2.8,��
2024/04/02,15:20,0.506,0.771,0.484,0.960,0.677,0.314,0.553,0.515,���쓌,0.6,��
2024/04/02,15:30,0.507,0.770,0.484,0.959,0.678,0.315,0.552,0.515,���쓌,1.5,��
2024/04/02,15:40,0.505,0.771,0.484,0.961,0.676,0.315,0.553,0.516,-,CALM,��
2024/04/02,15:50,0.505,0.771,0.483,0.961,0.677,0.315,0.552,0.516,�쐼,1.7,��
2024/04/02,16:00,0.505,0.770,0.484,0.959,0.676,0.315,0.552,0.516,�k��,0.9,��
2024/04/02,16:10,0.506,0.772,0.483,0.961,0.676,0.314,0.552,0.516,�k�k��,1.4,��
2024/04/02,16:20,0.504,0.772,0.485,0.960,0.677,0.315,0.550,0.517,��,5.9,��
2024/04/02,16:30,0.507,0.775,0.485,0.962,0.676,0.314,0.551,0.516,��,8.3,��
2024/04/02,16:40,0.505,0.774,0.484,0.959,0.677,0.315,0.552,0.516,��,7.8,��
2024/04/02,16:50,0.505,0.774,0.485,0.961,0.676,0.314,0.551,0.515,��,6.2,��
2024/04/02,17:00,0.507,0.775,0.486,0.960,0.677,0.314,0.553,0.516,��,7.0,��
2024/04/02,17:10,0.507,0.773,0.486,0.960,0.679,0.315,0.551,0.517,��,6.4,��
2024/04/02,17:20,0.507,0.774,0.483,0.960,0.678,0.314,0.552,0.518,���k��,4.5,��
2024/04/02,17:30,0.508,0.775,0.485,0.960,0.677,0.313,0.552,0.517,��,3.5,��
2024/04/02,17:40,0.508,0.774,0.485,0.961,0.676,0.315,0.551,0.518,��,3.7,��
2024/04/02,17:50,0.507,0.775,0.486,0.960,0.677,0.316,0.551,0.517,���쐼,3.2,��
2024/04/02,18:00,0.508,0.774,0.487,0.961,0.677,0.315,0.551,0.519,���쐼,4.0,��
2024/04/02,18:10,0.509,0.773,0.487,0.959,0.678,0.316,0.551,0.518,�쐼,3.6,��
2024/04/02,18:20,0.507,0.774,0.487,0.960,0.677,0.315,0.551,0.517,���쐼,4.7,��
2024/04/02,18:30,0.508,0.774,0.486,0.961,0.680,0.315,0.552,0.520,���쐼,5.4,��
2024/04/02,18:40,0.509,0.775,0.485,0.960,0.679,0.315,0.551,0.519,���쐼,5.2,��
2024/04/02,18:50,0.508,0.773,0.485,0.961,0.681,0.315,0.551,0.518,���쐼,4.8,��
2024/04/02,19:00,0.507,0.773,0.484,0.961,0.679,0.315,0.552,0.518,���쐼,4.4,��
2024/04/02,19:10,0.509,0.774,0.486,0.962,0.679,0.315,0.553,0.519,���쐼,4.7,��
2024/04/02,19:20,0.509,0.774,0.484,0.961,0.678,0.314,0.553,0.518,�쐼,3.8,��
2024/04/02,19:30,0.509,0.773,0.487,0.959,0.679,0.315,0.552,0.519,���쐼,3.6,��
2024/04/02,19:40,0.508,0.774,0.487,0.962,0.681,0.315,0.552,0.518,�쐼,3.2,��
2024/04/02,19:50,0.506,0.773,0.487,0.961,0.681,0.314,0.554,0.518,�쐼,4.4,��
2024/04/02,20:00,0.507,0.773,0.485,0.960,0.679,0.314,0.553,0.517,���쐼,5.7,��
2024/04/02,20:10,0.509,0.771,0.486,0.962,0.679,0.315,0.552,0.518,���쐼,5.8,��
2024/04/02,20:20,0.508,0.773,0.484,0.962,0.679,0.315,0.552,0.518,���쐼,4.8,��
2024/04/02,20:30,0.508,0.772,0.485,0.961,0.679,0.314,0.552,0.518,���쐼,4.9,��
2024/04/02,20:40,0.507,0.773,0.484,0.960,0.680,0.314,0.553,0.517,���쐼,4.6,��
2024/04/02,20:50,0.507,0.774,0.485,0.961,0.680,0.314,0.551,0.518,���쐼,3.5,��
2024/04/02,21:00,0.507,0.773,0.484,0.960,0.678,0.313,0.554,0.517,���쐼,2.5,��
2024/04/02,21:10,0.508,0.774,0.484,0.959,0.679,0.314,0.552,0.517,��,3.0,��
2024/04/02,21:20,0.507,0.772,0.486,0.959,0.678,0.313,0.552,0.517,���k��,3.0,��
2024/04/02,21:30,0.507,0.774,0.486,0.961,0.680,0.315,0.553,0.518,���k��,2.6,��
2024/04/02,21:40,0.507,0.772,0.486,0.962,0.679,0.314,0.552,0.518,�k��,2.3,��
2024/04/02,21:50,0.507,0.772,0.484,0.963,0.679,0.314,0.553,0.516,���k��,3.4,��
2024/04/02,22:00,0.507,0.774,0.485,0.962,0.680,0.315,0.553,0.518,���k��,3.4,��
2024/04/02,22:10,0.507,0.773,0.485,0.963,0.680,0.313,0.552,0.518,�k��,3.4,��
2024/04/02,22:20,0.509,0.771,0.486,0.959,0.679,0.315,0.552,0.518,���k��,3.0,��
2024/04/02,22:30,0.507,0.775,0.485,0.961,0.680,0.314,0.552,0.516,���k��,3.4,��
2024/04/02,22:40,0.507,0.773,0.485,0.961,0.681,0.315,0.553,0.515,���k��,3.5,��
2024/04/02,22:50,0.508,0.774,0.487,0.960,0.681,0.315,0.553,0.516,�k��,4.6,��
2024/04/02,23:00,0.508,0.772,0.485,0.961,0.680,0.314,0.552,0.518,�k��,5.2,��
2024/04/02,23:10,0.507,0.773,0.485,0.961,0.679,0.315,0.551,0.517,�k��,4.4,��
2024/04/02,23:20,0.508,0.771,0.486,0.962,0.679,0.314,0.552,0.517,�k��,4.6,��
2024/04/02,23:30,0.507,0.774,0.485,0.962,0.680,0.315,0.552,0.517,�k��,3.7,��
2024/04/02,23:40,0.507,0.772,0.485,0.961,0.680,0.316,0.552,0.519,�k�k��,4.0,��
2024/04/02,23:50,0.507,0.773,0.485,0.961,0.680,0.315,0.551,0.518,�k��,4.1,��
